Lapse_Rate
7.1 7.0 7.1 7.4 7.2 7.5 8.0 8.5 6.6 7.5 8.0 6.9 6.9 6.5 6.5 6.9 6.7 7.3 6.7 6.6 6.5 6.5 6.5 6.5 6.5 6.5 6.5 7.1 6.9 6.5 6.5 6.5 6.5 6.5 6.5 6.5 6.5 6.5 6.5 6.5 6.5 6.5 6.5 6.5
7.0 7.1 6.8 7.3 7.1 7.5 8.7 7.6 7.7 7.0 7.7 6.5 6.5 6.7 6.5 6.9 6.5 6.5 6.5 6.5 6.5 6.5 6.5 6.5 6.5 6.5 6.9 7.2 6.6 6.5 6.5 6.5 6.5 6.5 6.5 6.5 6.5 6.5 6.5 6.5 6.5 6.5 6.5 6.5
7.4 7.2 6.6 7.0 7.0 7.1 9.0 7.7 6.5 7.1 6.6 7.8 6.6 6.5 6.5 6.5 7.3 6.9 7.0 6.6 6.7 6.5 6.5 6.5 6.5 6.5 6.6 7.2 7.0 6.8 6.8 6.5 6.5 6.5 6.5 6.5 6.5 6.5 6.5 6.5 6.5 6.5 6.5 6.5
7.6 7.1 6.5 6.9 7.1 7.0 8.8 7.6 6.8 7.6 6.5 6.6 6.6 6.6 6.5 6.5 6.5 7.0 7.2 6.5 6.5 6.5 6.5 6.5 6.5 6.5 6.5 6.8 7.1 7.0 6.5 6.5 6.5 6.5 6.5 6.5 6.5 6.5 6.5 6.5 6.5 6.5 6.5 6.5
7.5 7.1 6.9 6.9 7.0 7.4 8.3 6.0 7.2 7.9 7.0 7.3 6.7 6.5 6.5 6.5 6.5 6.5 6.5 6.5 6.5 6.5 6.5 6.5 6.5 6.5 6.5 6.5 6.6 6.5 6.5 6.5 6.5 6.5 6.5 6.5 6.5 6.5 6.5 6.5 6.5 6.5 6.5 6.5
7.7 7.2 7.1 7.2 6.8 7.8 7.6 8.2 8.2 8.0 7.0 6.7 6.5 6.5 6.5 6.5 6.7 7.0 7.3 6.7 6.5 6.5 6.6 7.3 7.4 7.6 7.3 6.9 6.5 6.5 6.5 6.5 6.5 6.5 6.5 6.5 6.5 6.5 6.5 6.5 6.5 6.5 6.5 6.5
7.8 7.2 7.3 7.7 7.3 8.3 7.2 7.0 8.3 7.4 6.5 6.5 6.5 6.5 6.9 6.5 6.7 6.5 7.1 7.3 6.6 7.3 8.3 8.1 7.8 7.6 7.3 7.1 6.9 7.1 6.5 6.5 6.5 6.5 6.5 6.5 6.5 6.5 6.5 6.5 6.5 6.5 6.5 6.5
7.8 7.2 7.4 7.3 7.1 7.6 8.4 8.0 7.6 7.3 6.5 6.8 6.6 6.8 6.7 7.1 7.3 6.8 7.0 7.6 8.1 8.5 6.8 6.5 6.5 6.5 6.5 6.5 6.5 6.5 6.6 6.5 6.5 6.5 6.5 6.5 6.5 6.5 6.5 6.5 6.5 6.5 6.5 6.5
7.8 7.5 7.5 7.3 7.3 7.7 8.4 8.3 8.0 7.8 6.9 6.6 7.5 6.8 7.1 6.5 6.5 6.5 7.2 8.2 8.6 8.0 6.6 6.5 6.5 6.5 6.5 6.5 6.5 6.5 6.5 6.5 6.5 6.5 6.5 6.5 6.5 6.5 7.0 6.6 6.5 6.5 6.7 6.5
7.8 7.9 7.6 7.2 7.3 7.4 8.0 8.4 8.2 8.1 7.1 7.9 7.8 6.7 6.7 7.4 7.0 6.5 6.9 7.1 7.2 7.8 6.5 6.5 6.5 6.5 6.5 6.5 6.5 6.5 6.5 6.5 6.5 6.5 6.5 6.5 6.5 6.6 7.2 6.5 6.5 7.0 7.2 7.2
7.6 7.5 7.3 7.1 7.1 7.5 8.0 7.7 7.5 7.8 6.9 7.8 8.2 8.3 7.6 7.7 7.4 6.5 7.1 6.8 6.7 6.6 6.5 6.5 6.5 6.5 6.5 6.5 6.5 6.5 6.5 6.5 6.5 6.5 6.5 6.5 6.9 6.7 6.5 6.7 7.3 7.4 7.5 7.6
7.4 7.2 6.9 7.0 7.3 7.4 7.9 7.1 7.6 7.6 6.4 7.0 8.7 8.3 9.2 8.8 8.6 7.7 7.2 7.0 6.7 6.8 6.5 6.5 6.5 6.5 6.5 6.5 6.5 6.5 6.5 6.5 6.5 6.5 6.5 6.7 7.3 7.0 7.5 7.7 7.4 7.5 7.6 7.9
6.9 6.9 7.1 6.9 6.8 7.3 7.9 7.0 6.3 6.5 5.6 6.7 7.4 7.9 8.1 9.1 8.8 9.2 6.8 6.6 6.9 7.1 7.6 6.8 6.5 6.5 6.5 6.5 6.5 6.5 6.5 6.8 6.5 6.5 6.5 6.6 7.2 7.7 7.8 8.0 7.7 7.9 8.1 8.2
7.1 7.0 7.0 7.2 7.3 7.6 7.4 6.3 6.4 7.7 6.4 7.1 7.4 9.2 8.6 8.8 9.3 9.1 8.2 8.2 7.9 7.3 7.1 6.9 6.5 6.5 6.9 6.5 6.5 6.5 6.6 6.6 6.5 6.5 6.5 7.0 7.4 7.7 7.9 7.8 7.4 7.4 8.0 8.2
6.7 6.8 7.0 6.8 6.8 6.6 6.5 6.8 7.0 7.7 7.6 6.8 7.1 8.5 8.8 8.7 9.1 8.5 8.7 7.7 6.8 7.1 6.8 6.6 6.5 6.8 6.7 6.6 6.5 6.5 6.9 6.5 6.5 6.5 6.8 6.8 7.0 7.8 8.1 7.7 7.7 8.0 7.9 8.0
7.3 7.2 7.2 6.6 6.4 6.5 6.6 6.3 6.4 7.4 6.9 6.6 6.5 8.4 6.8 8.2 8.5 7.8 7.3 6.8 6.5 6.8 6.7 6.8 7.0 7.6 6.9 6.5 6.5 6.7 7.4 7.6 7.5 6.8 7.7 7.4 7.4 8.0 8.2 8.0 8.0 7.9 8.2 8.5
7.6 7.4 7.0 6.6 6.5 6.6 6.3 7.0 7.5 6.8 6.8 6.7 6.7 6.7 8.0 8.2 8.1 6.9 6.4 6.2 6.8 6.6 6.8 7.1 6.9 7.0 7.2 6.5 6.5 6.7 7.4 7.6 7.5 7.1 6.9 7.3 7.8 7.6 8.1 8.2 8.2 6.6 8.5 8.6
7.3 7.3 7.4 7.1 6.6 6.5 6.7 7.6 5.9 6.8 6.8 6.6 6.5 6.5 7.0 6.7 6.2 6.9 6.4 6.2 6.5 6.3 7.0 7.1 6.9 7.2 7.0 6.5 6.7 7.3 7.6 7.7 7.5 7.7 7.4 7.9 8.2 8.3 8.3 8.3 7.4 7.9 8.2 8.4
6.6 6.3 6.2 6.2 6.1 6.2 6.7 7.4 6.9 6.6 7.2 7.2 6.9 6.5 6.5 6.2 6.8 6.9 6.8 6.8 6.5 7.5 6.5 6.6 6.9 6.5 6.5 6.5 6.8 7.2 7.6 7.5 7.6 7.8 7.9 8.0 7.9 8.0 8.1 8.1 8.1 8.1 8.1 8.3
6.7 7.6 6.3 6.1 5.7 6.1 6.7 6.8 6.8 6.5 6.5 6.8 6.7 7.5 6.5 7.2 7.1 6.9 6.9 7.2 6.5 6.5 6.6 7.4 6.5 6.5 7.1 7.4 7.7 7.9 7.9 8.0 7.9 7.4 7.4 7.7 7.7 7.9 7.9 8.0 8.3 8.3 8.3 8.4
6.7 5.7 6.6 7.0 6.6 5.6 5.8 6.8 6.8 7.1 6.6 7.2 7.4 7.4 6.6 7.5 6.5 6.5 7.3 6.5 6.5 6.5 6.5 6.5 6.5 6.5 6.6 7.6 7.8 8.1 8.0 8.1 8.2 8.2 8.1 8.3 8.2 8.0 8.0 8.0 7.9 7.5 7.2 7.3
5.8 5.9 5.8 5.2 5.6 6.8 6.6 6.5 6.7 6.5 6.5 7.2 6.7 7.0 7.3 6.9 7.4 6.7 6.8 6.5 6.5 6.5 6.8 6.5 6.5 6.5 7.4 7.7 7.8 8.0 8.2 8.2 7.7 7.9 7.4 7.2 8.1 8.4 8.2 7.7 7.3 7.2 6.8 4.8
5.1 5.4 6.4 6.8 6.9 6.5 6.5 6.5 6.5 6.5 6.8 7.1 7.2 6.6 7.0 7.3 7.5 6.8 6.5 6.5 6.5 6.8 6.5 6.5 6.5 7.0 7.6 7.8 8.0 8.0 8.2 7.5 7.3 7.3 7.0 7.3 7.2 7.2 7.3 7.1 7.0 5.2 4.6 3.6
6.8 6.9 6.5 6.5 6.5 6.5 6.5 6.5 6.5 6.9 7.2 7.2 7.3 7.1 6.8 7.2 6.6 6.5 6.5 6.5 6.5 6.5 6.5 6.5 6.5 7.2 7.5 7.8 8.0 8.0 7.6 6.5 7.0 6.8 6.6 5.5 5.1 4.1 3.6 3.6 3.2 3.3 3.1 2.3
6.9 7.1 6.5 6.5 6.9 7.1 7.0 6.7 7.1 6.7 7.6 7.5 7.1 7.1 7.1 6.5 6.5 6.5 6.5 6.5 6.5 6.5 6.5 6.5 6.9 7.1 7.6 7.3 5.9 5.5 4.0 2.8 3.4 3.8 3.2 3.0 2.8 3.2 2.8 2.7 3.0 3.2 2.4 2.1
7.1 7.1 6.6 7.0 6.7 6.8 7.2 6.8 6.8 7.0 7.4 6.6 7.4 6.5 6.5 6.5 6.5 6.5 6.5 6.5 6.5 6.5 6.5 7.0 7.3 6.4 5.4 4.2 3.6 3.2 3.0 3.6 3.2 2.9 2.8 2.5 2.7 3.0 2.6 1.8 2.4 2.5 2.7 2.3
7.0 6.7 7.1 7.0 6.9 6.8 6.7 6.4 6.7 5.7 7.3 6.5 6.6 6.5 6.5 6.5 6.5 6.5 6.5 6.5 6.5 6.8 7.0 6.6 6.9 5.5 3.8 2.4 1.8 1.7 1.9 2.2 2.3 2.0 2.3 1.8 1.4 1.3 2.5 3.0 1.5 2.4 2.1 2.0
Wind_Speed
28 29 26 25 21 20 9 6 4 2 5 5 4 8 5 2 3 2 1 2 5 7 3 7 7 10 7 4 1 5 5 4 8 15 13 13 14 13 12 7 11 8 7 8
31 31 29 27 25 23 7 6 2 2 4 7 7 5 6 5 5 5 2 4 5 3 4 5 7 9 4 9 12 3 1 5 9 12 10 8 9 10 9 9 10 14 10 9
33 32 31 29 25 24 8 4 5 3 3 3 9 10 8 7 6 9 6 4 4 7 4 9 4 6 4 3 3 6 7 10 15 14 14 9 13 14 12 12 6 12 14 18
36 35 32 32 28 27 7 4 4 6 6 8 7 8 3 10 8 9 7 5 14 9 5 10 15 13 14 16 17 16 9 15 15 18 17 17 17 18 18 20 19 18 20 21
37 35 34 33 32 30 8 4 3 4 3 13 17 11 7 13 9 7 8 12 6 9 15 10 10 12 11 7 4 4 3 10 7 6 13 16 15 9 13 20 24 24 24 25
34 35 34 34 33 26 4 5 2 5 7 10 10 14 14 8 10 11 16 12 10 14 15 14 15 14 13 13 14 13 9 6 6 14 12 12 13 15 18 18 16 13 15 16
33 35 35 34 34 30 4 2 4 5 5 8 12 9 16 16 15 13 10 10 14 3 5 9 11 14 15 15 17 15 13 13 9 9 11 11 2 3 8 12 13 14 18 15
33 35 34 33 32 34 8 5 3 3 5 7 11 14 15 13 13 16 18 19 18 16 4 3 5 5 4 12 22 20 17 14 8 7 11 14 13 10 6 6 12 6 12 10
34 34 33 30 27 31 10 5 4 3 3 10 13 6 11 11 12 12 16 17 12 8 4 5 7 7 5 4 3 17 19 17 11 9 5 7 4 3 2 3 7 1 2 5
31 31 29 27 27 29 14 5 12 4 5 6 4 4 6 4 8 4 3 4 5 11 5 6 8 9 6 5 5 7 10 9 16 14 12 8 8 6 6 6 2 4 3 6
30 27 26 24 25 28 13 5 11 8 3 7 6 9 15 11 9 8 3 4 3 2 6 6 4 6 8 6 6 10 11 8 8 10 9 10 8 8 6 3 3 4 5 7
26 26 24 24 25 27 26 3 11 9 2 3 4 11 17 18 15 10 6 4 3 3 4 4 4 4 4 10 8 11 7 10 4 6 3 3 9 2 2 2 4 3 5 7
22 23 22 23 25 27 23 4 5 3 1 3 7 14 18 17 19 15 6 3 4 5 6 3 4 6 5 7 9 8 6 6 6 3 7 6 6 5 4 3 2 4 5 10
21 22 20 22 25 26 23 4 5 4 2 3 5 5 10 8 13 20 19 18 5 9 4 3 4 4 2 4 4 7 4 7 10 9 8 3 8 9 7 5 5 6 7 9
22 21 22 21 17 19 15 8 7 7 4 2 3 11 17 11 14 15 17 14 10 6 3 2 3 3 3 2 3 9 7 8 6 5 1 3 2 9 8 8 7 8 10 10
21 24 22 21 19 17 4 2 4 14 3 0 4 2 4 5 7 12 14 10 6 4 3 2 3 3 2 3 5 8 8 5 2 1 5 5 6 7 7 7 8 8 8 10
18 21 20 20 17 9 3 2 2 22 6 2 3 4 2 2 5 2 2 4 2 2 2 3 2 4 5 3 6 2 6 6 5 8 10 6 8 5 8 9 9 8 7 8
17 16 16 18 19 9 2 3 8 15 3 3 3 4 2 2 1 2 1 2 2 3 2 2 2 3 2 4 13 4 6 7 7 6 1 0 8 10 10 9 9 9 9 9
24 23 18 5 2 2 2 9 18 9 2 2 3 4 2 3 2 2 2 2 2 3 2 2 3 2 4 8 7 10 10 9 9 6 6 8 9 11 10 10 9 9 9 9
22 5 2 2 3 9 14 5 5 5 4 4 3 2 3 3 2 3 4 3 3 3 3 4 3 4 6 2 3 8 11 7 11 10 7 9 10 11 11 9 7 7 9 9
2 2 2 1 7 2 3 4 5 5 4 5 4 7 4 2 3 3 2 3 3 3 3 3 3 3 1 1 6 9 8 9 5 2 3 7 10 11 10 8 8 8 9 8
4 3 3 2 2 2 4 4 3 6 4 5 5 5 4 3 3 2 2 1 1 2 2 2 3 2 2 5 10 10 11 7 6 6 9 8 10 9 9 8 8 7 8 7
2 1 2 1 2 4 5 7 4 4 5 5 5 3 2 3 3 1 2 3 2 1 2 3 1 2 3 8 9 11 9 8 9 9 8 10 10 9 8 7 7 8 7 7
1 2 4 3 4 4 1 1 3 2 2 7 8 4 2 2 3 1 3 2 2 3 3 2 2 3 2 5 6 10 10 7 8 9 8 7 7 5 4 4 5 6 7 7
1 1 2 2 1 1 1 1 2 2 4 6 4 3 2 2 3 1 3 3 3 3 1 2 1 2 1 6 5 7 6 4 4 5 5 5 6 6 6 4 4 4 6 7
1 1 2 1 3 2 1 2 2 2 3 2 1 3 3 2 2 4 3 3 2 1 1 1 1 2 3 4 4 4 4 5 5 5 4 5 5 5 7 6 5 4 6 6
1 1 0 1 1 2 1 1 2 1 2 2 1 1 1 3 2 3 1 0 2 2 1 2 4 3 3 3 5 4 4 6 6 6 5 5 5 7 7 7 3 5 5 5
Wind_Direction
185 181 177 173 166 172 164 171 197 132 197 176 196 207 206 153 162 185 231 300 260 246 231 264 250 248 235 105 24 287 288 285 262 268 268 263 264 262 256 246 263 250 292 281
180 180 175 172 170 175 162 168 122 83 261 196 194 167 198 191 191 226 203 211 222 214 242 245 259 263 281 287 281 295 18 230 272 253 204 227 238 237 248 269 284 265 277 268
182 181 172 172 175 175 177 160 169 152 222 266 207 185 200 203 213 237 235 237 232 227 237 240 246 239 245 192 294 0 316 260 260 266 285 293 276 275 259 259 256 267 254 278
192 182 174 171 176 177 182 195 206 181 189 202 197 190 191 211 215 216 205 219 232 227 230 254 250 264 273 267 270 269 259 265 262 274 281 276 275 276 279 274 263 261 278 277
185 179 174 173 174 186 196 162 174 190 163 196 203 199 217 223 200 194 207 230 229 237 240 230 281 290 287 296 68 34 238 265 332 271 269 267 267 241 252 263 269 267 269 275
182 181 177 173 175 183 182 200 161 197 168 181 194 213 217 220 226 225 241 251 261 257 260 270 274 280 270 259 272 273 266 258 286 278 271 270 268 238 240 256 248 256 262 273
185 180 178 176 186 187 123 151 180 204 193 205 202 211 221 229 234 242 244 235 242 256 346 271 267 266 259 252 245 245 247 252 255 274 287 254 254 258 259 255 265 255 254 269
179 179 180 180 182 190 194 159 172 191 222 225 235 243 244 247 251 245 254 256 255 271 107 230 259 231 237 242 234 223 221 237 236 244 245 263 285 245 223 224 281 258 264 266
183 179 179 181 184 182 189 185 156 168 242 229 223 243 235 241 242 255 257 265 260 249 193 193 230 233 227 205 219 207 219 216 217 238 257 268 23 133 181 210 257 148 242 164
173 178 182 183 185 179 185 196 193 202 227 231 219 191 234 226 205 255 301 291 245 204 185 209 229 231 216 225 203 167 188 206 222 236 251 263 255 164 143 238 19 132 146 157
176 175 179 182 183 181 180 197 194 206 219 247 231 241 237 243 239 252 253 285 183 174 201 221 204 229 207 235 220 180 187 194 211 232 249 261 138 135 218 67 103 125 140 154
173 175 179 185 188 186 181 186 193 186 191 292 235 260 252 249 252 260 203 263 252 221 242 231 220 216 204 225 226 212 230 221 244 229 238 89 188 343 148 177 153 162 150 156
169 177 181 187 191 188 176 150 135 132 119 275 243 244 245 239 237 242 230 224 217 215 244 265 243 238 218 223 238 241 237 231 231 261 224 237 206 203 190 195 153 139 139 157
173 180 183 187 189 184 173 152 156 176 135 260 268 225 244 242 238 220 214 235 239 272 188 263 244 243 234 254 282 267 278 174 228 242 247 212 219 214 195 166 138 134 140 155
184 179 168 160 174 186 172 175 180 176 206 294 280 296 262 266 230 230 224 223 214 240 204 206 245 272 210 213 279 245 203 214 208 244 220 256 98 182 175 169 168 156 152 155
154 153 158 161 178 164 139 169 192 197 132 328 269 314 248 234 229 224 223 218 202 219 192 207 226 213 231 249 240 238 205 206 262 168 116 80 105 135 163 164 154 154 162 166
160 160 159 162 181 169 149 172 55 175 142 218 267 246 159 265 243 210 198 151 133 156 166 215 231 188 197 229 238 157 186 164 133 130 127 114 175 172 155 145 136 140 137 147
135 143 146 152 143 108 178 183 90 148 121 192 249 252 244 179 159 140 52 121 139 192 197 208 227 159 206 243 233 173 156 136 139 156 227 6 138 142 136 130 135 137 145 146
113 107 102 85 83 174 164 157 147 168 216 225 214 241 218 141 178 113 145 185 166 141 211 211 196 176 221 233 202 185 176 172 162 144 135 144 153 148 142 140 150 153 149 155
119 89 122 179 195 174 131 137 186 191 199 211 253 229 209 174 175 169 155 196 167 201 175 141 224 239 247 220 199 175 167 156 153 143 154 159 160 161 157 157 154 155 156 153
115 147 179 75 155 106 167 185 188 177 210 197 212 202 161 155 187 154 235 169 170 226 146 229 217 238 194 180 152 143 137 148 161 261 157 174 168 159 152 146 145 146 155 160
129 105 89 63 163 174 205 194 183 206 203 160 176 154 120 155 254 226 177 168 189 227 135 230 250 65 23 143 136 130 133 128 117 124 131 137 148 155 154 152 152 151 142 135
73 119 124 191 130 197 214 186 183 176 160 163 156 122 121 154 227 101 180 172 202 157 195 232 26 57 126 139 135 137 135 127 121 115 120 134 139 143 154 152 152 145 142 145
124 173 152 237 183 231 229 96 101 88 125 147 151 132 153 163 156 164 170 92 207 202 229 212 110 51 71 146 141 146 147 136 135 129 130 125 128 118 85 115 142 140 150 151
108 182 189 215 307 292 355 347 154 113 169 140 135 104 153 134 122 138 124 172 222 231 233 86 60 3 126 142 145 147 137 118 108 126 121 129 134 139 125 116 124 125 131 144
146 105 217 189 223 150 196 155 120 149 139 153 194 146 159 160 152 171 199 203 223 129 26 51 82 70 77 100 103 104 113 131 133 130 132 137 145 143 131 120 110 120 143 149
118 142 317 270 48 62 50 9 76 116 190 118 124 140 93 122 174 161 191 191 71 100 101 62 84 89 75 83 96 100 108 114 115 116 116 111 109 123 130 128 110 111 107 113